TimeEDT,TemperatureF,Dew PointF,Humidity,Sea Level PressureIn,VisibilityMPH,Wind Direction,Wind SpeedMPH,Gust SpeedMPH,PrecipitationIn,Events,Conditions,WindDirDegrees,DateUTC
12:53 AM,55.0,37.0,51,30.09,10.0,ESE,9.2,-,N/A,,Clear,110,2012-04-30 04:53:00
1:53 AM,55.0,37.0,51,30.06,10.0,ESE,9.2,-,N/A,,Overcast,120,2012-04-30 05:53:00
2:53 AM,53.1,37.9,57,30.04,10.0,SE,8.1,-,N/A,,Mostly Cloudy,130,2012-04-30 06:53:00
3:03 AM,57.2,37.4,48,30.05,10.0,SE,6.9,-,N/A,Thunderstorm,Mostly Cloudy,140,2012-04-30 07:03:00
3:21 AM,57.2,37.4,48,30.05,10.0,SSE,9.2,-,N/A,,Overcast,150,2012-04-30 07:21:00
3:53 AM,55.9,42.1,60,30.03,10.0,SSE,4.6,-,N/A,,Overcast,150,2012-04-30 07:53:00
4:53 AM,57.0,43.0,59,30.01,10.0,SSE,8.1,-,N/A,,Scattered Clouds,160,2012-04-30 08:53:00
5:53 AM,59.0,46.9,64,29.99,10.0,South,9.2,19.6,N/A,,Partly Cloudy,170,2012-04-30 09:53:00
6:53 AM,59.0,48.9,69,30.00,10.0,South,11.5,-,N/A,,Partly Cloudy,180,2012-04-30 10:53:00
7:53 AM,60.1,51.1,72,30.01,10.0,South,9.2,-,N/A,,Overcast,180,2012-04-30 11:53:00
8:53 AM,61.0,53.1,75,30.01,10.0,South,9.2,-,N/A,,Overcast,190,2012-04-30 12:53:00
9:53 AM,66.0,57.0,73,30.01,10.0,SW,10.4,-,N/A,,Mostly Cloudy,220,2012-04-30 13:53:00
10:53 AM,69.1,57.9,68,29.97,10.0,SSW,9.2,-,N/A,,Clear,210,2012-04-30 14:53:00
11:53 AM,72.0,57.9,61,29.96,10.0,SSW,8.1,-,N/A,,Clear,200,2012-04-30 15:53:00
12:53 PM,75.9,57.9,54,29.95,10.0,SW,6.9,16.1,N/A,,Clear,230,2012-04-30 16:53:00
1:53 PM,78.1,55.9,46,29.93,10.0,WSW,11.5,-,N/A,,Clear,240,2012-04-30 17:53:00
2:53 PM,79.0,57.9,48,29.92,10.0,WSW,13.8,21.9,N/A,,Partly Cloudy,240,2012-04-30 18:53:00
3:53 PM,78.1,57.0,48,29.88,10.0,SSW,15.0,19.6,N/A,,Partly Cloudy,210,2012-04-30 19:53:00
4:53 PM,79.0,55.0,44,29.86,10.0,SW,18.4,26.5,N/A,,Scattered Clouds,220,2012-04-30 20:53:00
5:53 PM,75.0,55.9,51,29.90,9.0,West,20.7,32.2,0.00,Rain,Light Rain,270,2012-04-30 21:53:00
6:23 PM,62.6,60.8,94,29.93,2.0,NW,11.5,-,0.26,Rain,Heavy Rain,310,2012-04-30 22:23:00
6:53 PM,62.1,60.1,93,29.92,2.5,NW,6.9,-,0.36,Rain,Rain,320,2012-04-30 22:53:00
6:57 PM,62.6,60.8,94,29.93,3.0,NW,5.8,-,0.02,Rain,Rain,320,2012-04-30 22:57:00
7:10 PM,62.6,60.8,94,29.94,2.5,NW,8.1,-,0.07,Rain,Rain,320,2012-04-30 23:10:00
7:20 PM,62.6,60.8,94,29.93,3.0,NW,6.9,-,0.10,Rain,Rain,320,2012-04-30 23:20:00
7:28 PM,62.6,60.8,94,29.93,2.0,NW,4.6,-,0.14,Rain,Rain,320,2012-04-30 23:28:00
7:48 PM,62.6,60.8,94,29.93,1.5,Calm,Calm,-,0.22,Rain,Heavy Rain,0,2012-04-30 23:48:00
7:53 PM,62.1,60.1,93,29.92,2.0,Calm,Calm,-,0.23,Rain,Rain,0,2012-04-30 23:53:00
8:01 PM,62.6,60.8,94,29.93,6.0,Calm,Calm,-,0.00,Rain,Light Rain,0,2012-05-01 00:01:00
8:39 PM,62.6,60.8,94,29.93,7.0,Calm,Calm,-,0.03,Rain,Light Rain,0,2012-05-01 00:39:00
8:53 PM,62.1,60.1,93,29.91,10.0,Calm,Calm,-,0.03,Rain,Light Rain,0,2012-05-01 00:53:00
9:46 PM,62.6,59.0,88,29.94,10.0,SW,4.6,-,0.00,,Mostly Cloudy,220,2012-05-01 01:46:00
9:53 PM,62.1,59.0,90,29.93,10.0,SW,5.8,-,0.00,,Overcast,220,2012-05-01 01:53:00
10:53 PM,61.0,59.0,93,29.94,9.0,SW,4.6,-,N/A,,Scattered Clouds,220,2012-05-01 02:53:00
11:08 PM,60.8,59.0,94,29.96,9.0,SW,4.6,-,N/A,,Mostly Cloudy,230,2012-05-01 03:08:00
11:25 PM,60.8,59.0,94,29.96,8.0,SSW,5.8,-,N/A,,Overcast,210,2012-05-01 03:25:00
11:53 PM,61.0,59.0,93,29.94,7.0,SW,5.8,-,N/A,,Mostly Cloudy,220,2012-05-01 03:53:00